ONEWEB-0142 (47288 NORAD) Tracking and Keplerian Element Data

This shows tracking and keplerian element data for the satellite.

Feedback or suggestion? Click here.




ElementValue
Catalog47288
NameONEWEB-0142
Epoch Orbit173
Epoch Day62.91667824
Epoch Year2021
RAAN15.6743
Inclination87.6219
Eccentricity0.0008523
Argument of Perigee21.5061
Mean Anonmoly45.3601
Mean Motion13.97214393
Decay Rate-0.00026381
L11 47288U 20100AG 21062.91667824 -.00026381 00000-0 -18941-1 0 9992
L22 47288 87.6219 15.6743 0008523 21.5061 45.3601 13.97214393 1735

Live tracking and technical data element details for ONEWEB-0142 (NORAD 47288). ONEWEB-0142 can be tracked NOW for your location showing map with azimuth and elevation plus other details from your city location.

Track the satellite on the map from your city or location and see movement details for azimuth, elevation, latitude, longitude, range, height, and movement on the map or in text.







IsCatalogInMostPopularTable: catalog: 47288, numindb: 28
Update: records affected: 1



GetName: 47288 ONEWEB-0142

Hit Count: updated at: Fri, 05 Mar 2021 07:48:00 GMT